FW0014 Weather Reports


time (UTC)temp
C
wind
direction
speed
KPH
gust
KPH
rain 1hr
cm
rain 24hr
cm
rain mn
cm
humidity
%
barometer
mb
20260902123325 22 141 0.0 0.0 0.00 0.00 0.00 83 1017.3
20260902123039 21 141 0.0 0.0 0.00 0.00 0.00 83 1014.4
20260902122823 22 141 0.0 0.0 0.00 0.00 0.00 82 1017.2
20260902122529 21 141 0.0 3.2 0.00 0.00 0.00 82 1014.4
20260902122320 22 141 0.0 3.2 0.00 0.00 0.00 82 1017.3
20260902122021 21 141 0.0 3.2 0.00 0.00 0.00 82 1014.4
20260902121818 22 141 1.6 3.2 0.00 0.00 0.00 82 1017.2
20260902121506 22 141 1.6 3.2 0.00 0.00 0.00 82 1014.4
20260902121316 22 140 1.6 3.2 0.00 0.00 0.00 82 1017.4
20260902121058 22 139 1.6 3.2 0.00 0.00 0.00 82 1014.5
20260902120814 22 139 0.0 3.2 0.00 0.00 0.00 82 1017.4
20260902120552 22 139 1.6 3.2 0.00 0.00 0.00 82 1014.3
20260902120331 22 139 1.6 3.2 0.00 0.00 0.00 82 1017.2
20260902120041 22 139 0.0 3.2 0.00 0.00 0.00 82 1014.4
20260902115830 22 139 1.6 3.2 0.00 0.00 0.00 82 1017.3
20260902115534 22 139 1.6 3.2 0.00 0.00 0.00 82 1014.4
20260902115330 22 139 1.6 3.2 0.00 0.00 0.00 82 1017.3
20260902115015 22 138 1.6 3.2 0.00 0.00 0.00 81 1014.5
20260902114828 22 138 1.6 3.2 0.00 0.00 0.00 81 1017.3
20260902114511 22 138 1.6 3.2 0.00 0.00 0.00 81 1014.5
20260902114324 22 137 1.6 3.2 0.00 0.00 0.00 81 1017.4
20260902114103 22 138 0.0 3.2 0.00 0.00 0.00 81 1014.6
20260902113823 22 138 1.6 3.2 0.00 0.00 0.00 81 1017.4
20260902113550 22 138 0.0 3.2 0.00 0.00 0.00 81 1014.5
20260902113340 22 138 1.6 3.2 0.00 0.00 0.00 81 1017.3
20260902113038 22 138 1.6 3.2 0.00 0.00 0.00 81 1014.4
20260902112831 22 138 1.6 3.2 0.00 0.00 0.00 81 1017.3
20260902112531 22 138 0.0 0.0 0.00 0.00 0.00 81 1014.4
20260902112329 22 138 0.0 0.0 0.00 0.00 0.00 81 1017.4
20260902112011 22 138 0.0 1.6 0.00 0.00 0.00 81 1014.5
20260902111829 22 138 0.0 3.2 0.00 0.00 0.00 80 1017.4
20260902111502 22 138 0.0 3.2 0.00 0.00 0.00 80 1014.5
20260902111345 22 138 0.0 3.2 0.00 0.00 0.00 81 1017.3
20260902111033 22 139 1.6 3.2 0.00 0.00 0.00 81 1014.4
20260902110822 22 139 1.6 3.2 0.00 0.00 0.00 81 1017.2
20260902110527 22 138 1.6 3.2 0.00 0.00 0.00 81 1014.3
20260902110320 22 139 1.6 3.2 0.00 0.00 0.00 80 1017.2
20260902110032 22 138 0.0 1.6 0.00 0.00 0.00 80 1014.2
20260902105817 22 138 0.0 0.0 0.00 0.00 0.00 80 1017.1
20260902105501 22 138 0.0 1.6 0.00 0.00 0.00 80 1014.2
20260902105314 22 137 0.0 1.6 0.00 0.00 0.00 80 1017.1
20260902105055 22 139 0.0 1.6 0.00 0.00 0.00 80 1014.3
20260902104831 22 138 1.6 1.6 0.00 0.00 0.00 80 1017.2
20260902104545 22 138 0.0 1.6 0.00 0.00 0.00 80 1014.3
20260902104349 22 138 0.0 1.6 0.00 0.00 0.00 80 1017.2
20260902104012 22 138 0.0 0.0 0.00 0.00 0.00 80 1014.3
20260902103824 22 138 0.0 0.0 0.00 0.00 0.00 79 1017.2
20260902103508 22 139 0.0 0.0 0.00 0.00 0.00 79 1014.2
20260902103322 22 138 0.0 0.0 0.00 0.00 0.00 79 1017.1
20260902103004 22 138 0.0 0.0 0.00 0.00 0.00 79 1014.2
20260902102839 22 138 0.0 1.6 0.00 0.00 0.00 79 1017.0
20260902102554 22 138 0.0 1.6 0.00 0.00 0.00 79 1014.3
20260902102329 22 138 0.0 1.6 0.00 0.00 0.00 79 1017.2
20260902102047 22 139 0.0 3.2 0.00 0.00 0.00 79 1014.3
20260902101825 22 138 0.0 3.2 0.00 0.00 0.00 79 1017.2
20260902101547 22 138 0.0 3.2 0.00 0.00 0.00 79 1014.4
20260902101323 23 138 0.0 4.8 0.00 0.00 0.00 79 1017.3
20260902101037 22 138 0.0 4.8 0.00 0.00 0.00 79 1014.4
20260902100840 23 138 1.6 4.8 0.00 0.00 0.00 79 1017.4
20260902100600 22 138 1.6 4.8 0.00 0.00 0.00 79 1014.5
20260902100315 23 138 1.6 3.2 0.00 0.00 0.00 79 1017.4
20260902100052 22 138 0.0 1.6 0.00 0.00 0.00 79 1014.4
20260902095832 23 138 0.0 0.0 0.00 0.00 0.00 78 1017.2
20260902095545 22 138 0.0 3.2 0.00 0.00 0.00 78 1014.3
20260902095328 23 138 0.0 3.2 0.00 0.00 0.00 78 1017.0
20260902095038 22 138 0.0 3.2 0.00 0.00 0.00 78 1014.2
20260902094823 23 138 1.6 3.2 0.00 0.00 0.00 78 1017.1
20260902094530 22 138 1.6 3.2 0.00 0.00 0.00 78 1014.3
20260902094319 23 137 0.0 0.0 0.00 0.00 0.00 78 1017.3
20260902094026 23 138 0.0 0.0 0.00 0.00 0.00 78 1014.3
20260902093816 23 138 0.0 0.0 0.00 0.00 0.00 78 1017.4
20260902093508 23 139 0.0 0.0 0.00 0.00 0.00 78 1014.4
20260902093353 23 139 0.0 1.6 0.00 0.00 0.00 78 1017.3
20260902093042 23 139 0.0 1.6 0.00 0.00 0.00 77 1014.5
20260902092829 23 138 0.0 4.8 0.00 0.00 0.00 77 1017.4
20260902092532 23 138 0.0 4.8 0.00 0.00 0.00 77 1014.6
20260902092329 23 138 0.0 4.8 0.00 0.00 0.00 77 1017.5
20260902092026 23 138 1.6 4.8 0.00 0.00 0.00 77 1014.6
20260902091829 23 138 1.6 3.2 0.00 0.00 0.00 77 1017.5
20260902091509 23 138 0.0 1.6 0.00 0.00 0.00 77 1014.6
20260902091327 23 138 0.0 1.6 0.00 0.00 0.00 76 1017.5
20260902091100 23 138 0.0 1.6 0.00 0.00 0.00 76 1014.6
20260902090824 23 138 0.0 1.6 0.00 0.00 0.00 76 1017.5
20260902090554 23 138 0.0 1.6 0.00 0.00 0.00 76 1014.6
20260902090322 23 138 0.0 1.6 0.00 0.00 0.00 76 1017.5
20260902090044 23 139 0.0 1.6 0.00 0.00 0.00 76 1014.6
20260902085820 23 138 0.0 1.6 0.00 0.00 0.00 76 1017.5
20260902085541 23 139 0.0 1.6 0.00 0.00 0.00 76 1014.6
20260902085320 23 139 0.0 1.6 0.00 0.00 0.00 76 1017.5
20260902085032 23 138 0.0 1.6 0.00 0.00 0.00 76 1014.5
20260902084818 23 138 0.0 1.6 0.00 0.00 0.00 76 1017.4
20260902084527 23 138 0.0 0.0 0.00 0.00 0.00 75 1014.6
20260902084315 23 139 0.0 0.0 0.00 0.00 0.00 75 1017.4
20260902084018 23 139 0.0 0.0 0.00 0.00 0.00 75 1014.6
20260902083828 23 138 0.0 1.6 0.00 0.00 0.00 75 1017.5
20260902083504 23 139 0.0 4.8 0.00 0.00 0.00 75 1014.6
20260902083325 24 138 0.0 4.8 0.00 0.00 0.00 74 1017.5
20260902083058 23 139 1.6 4.8 0.00 0.00 0.00 74 1014.6
20260902082822 24 138 3.2 4.8 0.00 0.00 0.00 74 1017.5
20260902082551 24 138 0.0 0.0 0.00 0.00 0.00 74 1014.6
20260902082319 24 138 0.0 0.0 0.00 0.00 0.00 74 1017.5
20260902082044 24 138 0.0 0.0 0.00 0.00 0.00 74 1014.7
20260902081818 24 138 0.0 0.0 0.00 0.00 0.00 74 1017.6
20260902081543 24 138 0.0 0.0 0.00 0.00 0.00 74 1014.7
20260902081317 24 138 0.0 0.0 0.00 0.00 0.00 74 1017.6
20260902081028 24 138 0.0 0.0 0.00 0.00 0.00 74 1014.7
20260902080817 24 138 0.0 0.0 0.00 0.00 0.00 74 1017.6
20260902080518 24 138 0.0 0.0 0.00 0.00 0.00 73 1014.7
20260902080315 24 138 0.0 0.0 0.00 0.00 0.00 73 1017.6
20260902080023 24 138 0.0 0.0 0.00 0.00 0.00 73 1014.6
20260902075813 24 138 0.0 0.0 0.00 0.00 0.00 73 1017.7
20260902075558 24 138 0.0 0.0 0.00 0.00 0.00 73 1014.7
20260902075333 24 138 0.0 0.0 0.00 0.00 0.00 73 1017.6
20260902075051 24 138 0.0 1.6 0.00 0.00 0.00 73 1014.7
20260902074852 24 138 0.0 3.2 0.00 0.00 0.00 72 1017.6
20260902074510 24 138 0.0 3.2 0.00 0.00 0.00 72 1014.7
20260902074328 25 137 0.0 3.2 0.00 0.00 0.00 72 1017.6
20260902074002 24 138 1.6 3.2 0.00 0.00 0.00 72 1014.6
20260902073824 25 138 3.2 3.2 0.00 0.00 0.00 72 1017.5
20260902073602 25 139 0.0 3.2 0.00 0.00 0.00 72 1014.7
20260902073322 25 139 0.0 3.2 0.00 0.00 0.00 72 1017.6
20260902073100 25 138 0.0 3.2 0.00 0.00 0.00 72 1014.7
20260902072839 25 138 0.0 3.2 0.00 0.00 0.00 72 1017.7
20260902072553 25 138 0.0 1.6 0.00 0.00 0.00 72 1014.6
20260902072350 25 138 0.0 0.0 0.00 0.00 0.00 71 1017.6
20260902072014 25 138 0.0 1.6 0.00 0.00 0.00 71 1014.7
20260902071846 25 138 0.0 1.6 0.00 0.00 0.00 71 1017.6
20260902071546 25 138 0.0 1.6 0.00 0.00 0.00 71 1014.7
20260902071321 25 138 0.0 3.2 0.00 0.00 0.00 71 1017.7
20260902071037 25 139 0.0 4.8 0.00 0.00 0.00 71 1014.7
20260902070838 25 138 0.0 4.8 0.00 0.00 0.00 71 1017.6
20260902070601 25 138 1.6 4.8 0.00 0.00 0.00 71 1014.8
20260902070315 25 138 3.2 4.8 0.00 0.00 0.00 71 1017.7
20260902070054 25 138 3.2 4.8 0.00 0.00 0.00 70 1014.7
20260902065833 25 138 3.2 4.8 0.00 0.00 0.00 70 1017.7
20260902065544 25 138 0.0 4.8 0.00 0.00 0.00 70 1014.7
20260902065350 25 138 0.0 4.8 0.00 0.00 0.00 69 1017.5
20260902065006 25 138 0.0 4.8 0.00 0.00 0.00 69 1014.6
20260902064829 25 138 1.6 4.8 0.00 0.00 0.00 69 1017.6
20260902064558 25 138 1.6 3.2 0.00 0.00 0.00 69 1014.8
20260902064326 26 138 0.0 1.6 0.00 0.00 0.00 69 1017.7
20260902064049 25 138 0.0 1.6 0.00 0.00 0.00 69 1014.7
20260902063823 26 139 0.0 1.6 0.00 0.00 0.00 69 1017.8
20260902063544 25 138 0.0 1.6 0.00 0.00 0.00 69 1014.9
20260902063321 26 138 0.0 1.6 0.00 0.00 0.00 69 1017.9
20260902063032 25 139 0.0 1.6 0.00 0.00 0.00 69 1014.8
20260902062818 26 138 0.0 1.6 0.00 0.00 0.00 69 1017.7
20260902062524 25 138 0.0 3.2 0.00 0.00 0.00 69 1014.8
20260902062315 26 138 0.0 3.2 0.00 0.00 0.00 69 1017.8
20260902062006 25 139 0.0 6.4 0.00 0.00 0.00 69 1014.9
20260902061831 26 138 1.6 6.4 0.00 0.00 0.00 69 1017.9
20260902061600 25 139 0.0 12.9 0.00 0.00 0.00 69 1014.9
20260902061351 26 116 3.2 12.9 0.00 0.00 0.00 70 1017.7
20260902061034 25 134 6.4 12.9 0.00 0.00 0.00 70 1014.9
20260902060826 25 130 1.6 8.0 0.00 0.00 0.00 69 1017.7
20260902060523 25 190 1.6 4.8 0.00 0.00 0.00 69 1014.8
20260902060325 25 71 1.6 4.8 0.00 0.00 0.00 68 1017.8
20260902060128 25 71 1.6 8.0 0.00 0.00 0.00 68 1014.8
20260902055819 26 71 1.6 8.0 0.00 0.00 0.00 68 1017.9
20260902055540 26 71 3.2 8.0 0.00 0.00 0.00 68 1014.8
20260902055315 26 35 4.8 8.0 0.00 0.00 0.00 68 1017.9
20260902055032 26 124 0.0 9.7 0.00 0.00 0.00 67 1014.7
20260902054814 26 126 1.6 9.7 0.00 0.00 0.00 67 1017.8
20260902054522 26 149 1.6 9.7 0.00 0.00 0.00 67 1014.7
20260902054330 26 149 1.6 9.7 0.00 0.00 0.00 67 1017.6
20260902054006 26 172 0.0 0.0 0.00 0.00 0.00 66 1014.7
20260902053850 26 172 0.0 1.6 0.00 0.00 0.00 66 1017.7
20260902053541 26 172 0.0 1.6 0.00 0.00 0.00 66 1014.7
20260902053322 26 172 0.0 1.6 0.00 0.00 0.00 66 1017.7
20260902053102 26 173 0.0 1.6 0.00 0.00 0.00 66 1014.6
20260902052839 26 172 0.0 1.6 0.00 0.00 0.00 66 1017.6
20260902052550 26 172 0.0 1.6 0.00 0.00 0.00 65 1014.5
20260902052330 26 172 0.0 0.0 0.00 0.00 0.00 65 1017.5
20260902052042 26 173 0.0 1.6 0.00 0.00 0.00 65 1014.4
20260902051829 26 172 0.0 1.6 0.00 0.00 0.00 65 1017.5
20260902051532 26 173 0.0 1.6 0.00 0.00 0.00 64 1014.5
20260902051325 26 172 0.0 1.6 0.00 0.00 0.00 64 1017.5
20260902051027 26 173 0.0 1.6 0.00 0.00 0.00 64 1014.5
20260902050844 26 173 0.0 1.6 0.00 0.00 0.00 64 1017.5
20260902050547 26 172 0.0 1.6 0.00 0.00 0.00 64 1014.5
20260902050320 26 172 0.0 3.2 0.00 0.00 0.00 64 1017.5
20260902050016 26 173 0.0 3.2 0.00 0.00 0.00 64 1014.5
20260902045827 26 173 0.0 3.2 0.00 0.00 0.00 64 1017.4
20260902045500 26 173 0.0 1.6 0.00 0.00 0.00 64 1014.5
20260902045325 27 172 0.0 0.0 0.00 0.00 0.00 64 1017.4
20260902045054 26 173 0.0 3.2 0.00 0.00 0.00 64 1014.5
20260902044825 27 173 0.0 3.2 0.00 0.00 0.00 64 1017.4
20260902044545 26 173 0.0 3.2 0.00 0.00 0.00 63 1014.5
20260902044322 27 172 1.6 3.2 0.00 0.00 0.00 63 1017.5
20260902044007 26 172 1.6 3.2 0.00 0.00 0.00 63 1014.6
20260902043821 27 173 1.6 3.2 0.00 0.00 0.00 63 1017.5
20260902043600 26 173 0.0 1.6 0.00 0.00 0.00 62 1014.6
20260902043339 27 172 0.0 0.0 0.00 0.00 0.00 62 1017.6
20260902043055 27 172 0.0 4.8 0.00 0.00 0.00 62 1014.6
20260902042830 27 173 0.0 4.8 0.00 0.00 0.00 62 1017.4
20260902042550 27 173 0.0 4.8 0.00 0.00 0.00 62 1014.5
20260902042329 27 173 3.2 4.8 0.00 0.00 0.00 62 1017.4
20260902042045 27 137 1.6 3.2 0.00 0.00 0.00 61 1014.5
20260902041846 27 137 0.0 1.6 0.00 0.00 0.00 61 1017.4
20260902041510 27 137 0.0 1.6 0.00 0.00 0.00 61 1014.4
20260902041322 27 138 0.0 1.6 0.00 0.00 0.00 60 1017.5
20260902041002 27 137 0.0 1.6 0.00 0.00 0.00 60 1014.5
20260902040820 27 137 0.0 1.6 0.00 0.00 0.00 60 1017.4
20260902040556 27 137 0.0 1.6 0.00 0.00 0.00 60 1014.5
20260902040318 27 137 0.0 1.6 0.00 0.00 0.00 60 1017.4
20260902040048 27 137 0.0 3.2 0.00 0.00 0.00 60 1014.5
20260902035835 28 138 0.0 3.2 0.00 0.00 0.00 60 1017.4
20260902035518 27 137 0.0 3.2 0.00 0.00 0.00 60 1014.4
20260902035332 28 137 1.6 3.2 0.00 0.00 0.00 60 1017.3
20260902035005 27 138 0.0 1.6 0.00 0.00 0.00 60 1014.4
20260902034829 28 137 0.0 1.6 0.00 0.00 0.00 59 1017.4
20260902034555 27 137 0.0 1.6 0.00 0.00 0.00 59 1014.3
20260902034326 28 137 0.0 1.6 0.00 0.00 0.00 59 1017.3
20260902034046 28 137 0.0 1.6 0.00 0.00 0.00 59 1014.3
20260902033843 28 138 0.0 0.0 0.00 0.00 0.00 58 1017.3
20260902033517 28 137 0.0 1.6 0.00 0.00 0.00 58 1014.4
20260902033319 28 137 0.0 3.2 0.00 0.00 0.00 58 1017.3
20260902033106 28 137 0.0 3.2 0.00 0.00 0.00 58 1014.2
20260902032816 28 137 0.0 3.2 0.00 0.00 0.00 58 1017.3
20260902032552 28 137 1.6 3.2 0.00 0.00 0.00 58 1014.1
20260902032314 28 137 1.6 1.6 0.00 0.00 0.00 57 1017.2
20260902032044 28 137 0.0 1.6 0.00 0.00 0.00 57 1014.2
20260902031832 28 137 0.0 1.6 0.00 0.00 0.00 57 1017.2
20260902031536 28 137 0.0 1.6 0.00 0.00 0.00 57 1014.1
20260902031330 28 137 1.6 1.6 0.00 0.00 0.00 57 1016.9
20260902031028 28 137 0.0 3.2 0.00 0.00 0.00 56 1014.0
20260902030827 29 137 1.6 4.8 0.00 0.00 0.00 56 1016.8
20260902030510 28 137 0.0 4.8 0.00 0.00 0.00 56 1013.9
20260902030325 29 137 0.0 4.8 0.00 0.00 0.00 56 1016.8
20260902030109 28 137 1.6 4.8 0.00 0.00 0.00 56 1013.7
20260902025843 29 137 1.6 3.2 0.00 0.00 0.00 56 1016.6
20260902025532 29 138 1.6 3.2 0.00 0.00 0.00 56 1013.7
20260902025320 29 137 1.6 3.2 0.00 0.00 0.00 56 1016.6
20260902025026 29 138 0.0 3.2 0.00 0.00 0.00 55 1013.5
20260902024818 29 138 1.6 3.2 0.00 0.00 0.00 55 1016.5
20260902024517 29 137 0.0 0.0 0.00 0.00 0.00 54 1013.4
20260902024315 30 137 0.0 0.0 0.00 0.00 0.00 54 1016.4
20260902024100 29 138 0.0 1.6 0.00 0.00 0.00 54 1013.3
20260902023848 30 137 0.0 3.2 0.00 0.00 0.00 55 1016.3
20260902023531 29 138 0.0 3.2 0.00 0.00 0.00 55 1013.1
20260902023325 30 138 0.0 3.2 0.00 0.00 0.00 55 1016.1
20260902023032 30 137 1.6 4.8 0.00 0.00 0.00 55 1012.9
20260902022822 30 138 3.2 4.8 0.00 0.00 0.00 55 1016.0
20260902022504 30 137 1.6 4.8 0.00 0.00 0.00 54 1012.9
20260902022340 30 137 3.2 4.8 0.00 0.00 0.00 54 1015.9
20260902022054 30 137 1.6 3.2 0.00 0.00 0.00 54 1013.0
20260902021830 30 137 1.6 3.2 0.00 0.00 0.00 54 1015.9
20260902021549 30 137 1.6 3.2 0.00 0.00 0.00 53 1012.9
20260902021326 30 138 0.0 0.0 0.00 0.00 0.00 53 1015.9
20260902021036 30 137 0.0 0.0 0.00 0.00 0.00 53 1012.7
20260902020824 30 137 0.0 0.0 0.00 0.00 0.00 53 1015.8
20260902020528 30 137 0.0 0.0 0.00 0.00 0.00 52 1012.8
20260902020321 31 137 0.0 0.0 0.00 0.00 0.00 52 1015.7
20260902020021 30 138 0.0 0.0 0.00 0.00 0.00 52 1012.6
20260902015819 31 137 0.0 0.0 0.00 0.00 0.00 52 1015.8
20260902015602 30 137 0.0 0.0 0.00 0.00 0.00 52 1012.6
20260902015336 31 137 0.0 0.0 0.00 0.00 0.00 52 1015.6
20260902015036 31 138 0.0 0.0 0.00 0.00 0.00 51 1012.5
20260902014832 31 138 0.0 0.0 0.00 0.00 0.00 51 1015.5
20260902014517 31 120 0.0 0.0 0.00 0.00 0.00 51 1012.4
20260902014330 31 117 0.0 0.0 0.00 0.00 0.00 51 1015.5
20260902014008 31 131 0.0 0.0 0.00 0.00 0.00 51 1012.4
20260902013829 31 145 0.0 0.0 0.00 0.00 0.00 51 1015.4
20260902013600 31 145 0.0 0.0 0.00 0.00 0.00 51 1012.4
20260902013327 31 137 0.0 0.0 0.00 0.00 0.00 50 1015.4
20260902013054 31 138 0.0 0.0 0.00 0.00 0.00 50 1012.4
20260902012826 31 129 0.0 0.0 0.00 0.00 0.00 50 1015.4
20260902012551 31 133 0.0 0.0 0.00 0.00 0.00 50 1012.4
20260902012325 32 139 0.0 0.0 0.00 0.00 0.00 49 1015.4
20260902012049 31 94 0.0 0.0 0.00 0.00 0.00 49 1012.3
20260902011823 32 127 0.0 0.0 0.00 0.00 0.00 49 1015.4
20260902011530 32 100 0.0 0.0 0.00 0.00 0.00 49 1012.3
20260902011322 32 93 0.0 0.0 0.00 0.00 0.00 49 1015.3
20260902011024 32 104 0.0 0.0 0.00 0.00 0.00 48 1012.2
20260902010821 32 106 0.0 0.0 0.00 0.00 0.00 48 1015.2
20260902010507 32 102 0.0 0.0 0.00 0.00 0.00 48 1012.2
20260902010321 32 118 0.0 0.0 0.00 0.00 0.00 48 1015.2
20260902010100 32 89 0.0 0.0 0.00 0.00 0.00 47 1012.2
20260902005819 32 109 0.0 0.0 0.00 0.00 0.00 47 1015.2
20260902005553 32 106 0.0 0.0 0.00 0.00 0.00 47 1012.2
20260902005318 32 93 0.0 0.0 0.00 0.00 0.00 47 1015.3
20260902005046 32 87 0.0 0.0 0.00 0.00 0.00 47 1012.2
20260902004836 33 89 0.0 0.0 0.00 0.00 0.00 47 1015.3
20260902004519 32 71 0.0 0.0 0.00 0.00 0.00 46 1012.2
20260902004314 33 20 0.0 0.0 0.00 0.00 0.00 46 1015.2
20260902004003 33 151 0.0 0.0 0.00 0.00 0.00 46 1012.3
20260902003814 33 116 0.0 0.0 0.00 0.00 0.00 46 1015.3
20260902003557 33 111 0.0 0.0 0.00 0.00 0.00 46 1012.3
20260902003333 33 108 0.0 0.0 0.00 0.00 0.00 46 1015.3
20260902003055 33 79 0.0 0.0 0.00 0.00 0.00 46 1012.3
20260902002852 33 114 0.0 0.0 0.00 0.00 0.00 45 1015.3
20260902002517 33 89 0.0 0.0 0.00 0.00 0.00 45 1012.3
20260902002329 33 121 0.0 0.0 0.00 0.00 0.00 45 1015.3
20260902002015 33 83 0.0 0.0 0.00 0.00 0.00 45 1012.3
20260902001829 33 105 0.0 0.0 0.00 0.00 0.00 45 1015.3
20260902001504 33 106 0.0 0.0 0.00 0.00 0.00 44 1012.3
20260902001329 34 96 0.0 0.0 0.00 0.00 0.00 44 1015.4
20260902001055 33 122 0.0 0.0 0.00 0.00 0.00 44 1012.3
20260902000847 34 96 0.0 0.0 0.00 0.00 0.00 44 1015.3
20260902000528 33 111 0.0 0.0 0.00 0.00 0.00 44 1012.3
20260902000346 34 106 0.0 0.0 0.00 0.00 0.00 43 1015.3
20260902000115 34 93 0.0 0.0 0.00 0.00 0.00 43 1012.2
20260901235842 34 143 0.0 0.0 0.00 0.00 0.00 43 1015.3
20260901235526 34 129 0.0 0.0 0.00 0.00 0.00 43 1012.2
20260901235341 34 118 0.0 0.0 0.00 0.00 0.00 43 1015.1
20260901235052 34 139 0.0 0.0 0.00 0.00 0.00 43 1012.2
20260901234819 34 127 0.0 0.0 0.00 0.00 0.00 43 1015.3
20260901234544 34 132 0.0 0.0 0.00 0.00 0.00 43 1012.3
20260901234318 34 137 0.0 0.0 0.00 0.00 0.00 43 1015.3
20260901234036 34 135 0.0 0.0 0.00 0.00 0.00 43 1012.3
20260901233819 34 142 0.0 0.0 0.00 0.00 0.00 43 1015.3
20260901233530 34 142 0.0 0.0 0.00 0.00 0.00 43 1012.3
20260901233337 34 154 0.0 0.0 0.00 0.00 0.00 43 1015.4
20260901233054 34 159 0.0 0.0 0.00 0.00 0.00 43 1012.4
20260901232815 34 145 0.0 0.0 0.00 0.00 0.00 43 1015.4
20260901232546 34 151 0.0 0.0 0.00 0.00 0.00 43 1012.4
20260901232314 34 115 0.0 0.0 0.00 0.00 0.00 43 1015.4
20260901232038 33 113 0.0 0.0 0.00 0.00 0.00 43 1012.4
20260901231814 34 112 0.0 0.0 0.00 0.00 0.00 43 1015.4
20260901231533 33 100 0.0 0.0 0.00 0.00 0.00 43 1012.4
20260901231350 34 138 0.0 0.0 0.00 0.00 0.00 43 1015.5
20260901231057 33 125 0.0 0.0 0.00 0.00 0.00 43 1012.4
20260901230826 34 118 0.0 0.0 0.00 0.00 0.00 43 1015.4
20260901230552 33 132 0.0 0.0 0.00 0.00 0.00 43 1012.4
20260901230326 34 133 0.0 0.0 0.00 0.00 0.00 43 1015.5
20260901230054 33 152 0.0 0.0 0.00 0.00 0.00 42 1012.4
20260901225825 34 116 0.0 0.0 0.00 0.00 0.00 42 1015.5
20260901225539 34 110 0.0 0.0 0.00 0.00 0.00 42 1012.4
20260901225323 34 100 0.0 0.0 0.00 0.00 0.00 42 1015.4
20260901225032 34 141 0.0 0.0 0.00 0.00 0.00 42 1012.3
20260901224824 35 152 0.0 0.0 0.00 0.00 0.00 42 1015.4
20260901224528 34 112 0.0 0.0 0.00 0.00 0.00 41 1012.2
20260901224323 35 82 0.0 0.0 0.00 0.00 0.00 41 1015.3
20260901224010 35 104 0.0 0.0 0.00 0.00 0.00 41 1012.3
20260901223821 35 105 0.0 0.0 0.00 0.00 0.00 41 1015.3
20260901223502 35 78 0.0 0.0 0.00 0.00 0.00 41 1012.1
20260901223342 35 48 0.0 0.0 0.00 0.00 0.00 41 1015.3
20260901223037 35 78 0.0 0.0 0.00 0.00 0.00 41 1012.2
20260901222839 35 143 0.0 0.0 0.00 0.00 0.00 41 1015.2
20260901222526 35 79 0.0 0.0 0.00 0.00 0.00 42 1012.2
20260901222331 35 96 0.0 0.0 0.00 0.00 0.00 42 1015.2
20260901222013 35 97 0.0 0.0 0.00 0.00 0.00 42 1012.1
20260901221830 35 89 0.0 0.0 0.00 0.00 0.00 42 1015.3
20260901221507 34 104 0.0 0.0 0.00 0.00 0.00 43 1012.2
20260901221329 35 73 0.0 0.0 0.00 0.00 0.00 43 1015.3
20260901221007 34 79 0.0 0.0 0.00 0.00 0.00 42 1012.3
20260901220826 35 112 0.0 0.0 0.00 0.00 0.00 42 1015.3
20260901220559 35 46 0.0 0.0 0.00 0.00 0.00 42 1012.3
20260901220324 35 86 0.0 0.0 0.00 0.00 0.00 42 1015.4
20260901220112 35 83 0.0 0.0 0.00 0.00 0.00 42 1012.4
20260901215823 35 102 0.0 0.0 0.00 0.00 0.00 43 1015.4
20260901215541 35 60 0.0 0.0 0.00 0.00 0.00 42 1012.3
20260901215320 35 14 0.0 0.0 0.00 0.00 0.00 42 1015.3
20260901215033 35 37 0.0 0.0 0.00 0.00 0.00 42 1012.4
20260901214839 35 75 0.0 0.0 0.00 0.00 0.00 42 1015.4
20260901214519 35 45 0.0 0.0 0.00 0.00 0.00 42 1012.4
20260901214329 35 60 0.0 0.0 0.00 0.00 0.00 42 1015.4
20260901214001 35 64 0.0 0.0 0.00 0.00 0.00 42 1012.5
20260901213825 35 63 0.0 0.0 0.00 0.00 0.00 41 1015.4
20260901213555 35 101 0.0 0.0 0.00 0.00 0.00 42 1012.5
20260901213322 35 76 0.0 0.0 0.00 0.00 0.00 42 1015.6
20260901213108 35 66 0.0 0.0 0.00 0.00 0.00 42 1012.4
20260901212840 35 95 0.0 0.0 0.00 0.00 0.00 42 1015.6
20260901212531 35 91 0.0 0.0 0.00 0.00 0.00 42 1012.6
20260901212330 35 130 0.0 0.0 0.00 0.00 0.00 42 1015.6
20260901212014 35 14 0.0 0.0 0.00 0.00 0.00 42 1012.6
20260901211829 35 108 0.0 0.0 0.00 0.00 0.00 42 1015.7
20260901211506 35 47 0.0 0.0 0.00 0.00 0.00 41 1012.7
20260901211326 35 52 0.0 0.0 0.00 0.00 0.00 42 1015.7
20260901211058 35 51 0.0 0.0 0.00 0.00 0.00 42 1012.8
20260901210843 35 48 0.0 0.0 0.00 0.00 0.00 42 1015.8
20260901210527 35 60 0.0 0.0 0.00 0.00 0.00 42 1012.9
20260901210319 35 116 0.0 0.0 0.00 0.00 0.00 42 1016.0
20260901210020 35 73 0.0 0.0 0.00 0.00 0.00 43 1013.0
20260901205816 35 102 0.0 0.0 0.00 0.00 0.00 43 1016.0
20260901205505 35 151 0.0 0.0 0.00 0.00 0.00 42 1013.0
20260901205400 35 148 0.0 0.0 0.00 0.00 0.00 42 1016.1
20260901205035 35 147 0.0 0.0 0.00 0.00 0.00 42 1013.1
20260901204830 35 156 0.0 0.0 0.00 0.00 0.00 42 1016.3
20260901204534 34 177 0.0 0.0 0.00 0.00 0.00 42 1013.2
20260901204327 35 197 0.0 0.0 0.00 0.00 0.00 42 1016.3
20260901204007 34 231 0.0 0.0 0.00 0.00 0.00 42 1013.2
20260901203824 34 231 0.0 0.0 0.00 0.00 0.00 43 1016.3
20260901203603 34 145 0.0 0.0 0.00 0.00 0.00 42 1013.3
20260901203342 34 142 0.0 0.0 0.00 0.00 0.00 43 1016.4
20260901203048 34 81 0.0 0.0 0.00 0.00 0.00 43 1013.3
20260901202819 34 128 0.0 0.0 0.00 0.00 0.00 44 1016.4
20260901202521 34 145 0.0 0.0 0.00 0.00 0.00 43 1013.4
20260901202337 34 68 0.0 0.0 0.00 0.00 0.00 44 1016.5
20260901202049 34 103 0.0 0.0 0.00 0.00 0.00 43 1013.5
20260901201831 35 137 0.0 0.0 0.00 0.00 0.00 43 1016.5
20260901201507 34 123 0.0 0.0 0.00 0.00 0.00 43 1013.5
20260901201344 35 129 0.0 0.0 0.00 0.00 0.00 44 1016.6
20260901201040 34 46 0.0 0.0 0.00 0.00 0.00 44 1013.5
20260901200820 35 82 0.0 0.0 0.00 0.00 0.00 43 1016.5
20260901200535 34 26 0.0 0.0 0.00 0.00 0.00 43 1013.5
20260901200318 34 157 0.0 0.0 0.00 0.00 0.00 43 1016.7
20260901200019 34 110 0.0 0.0 0.00 0.00 0.00 44 1013.5
20260901195814 34 113 0.0 0.0 0.00 0.00 0.00 44 1016.7
20260901195502 33 148 0.0 0.0 0.00 0.00 0.00 44 1013.7
20260901195331 34 145 0.0 0.0 0.00 0.00 0.00 44 1016.8
20260901195056 33 127 0.0 0.0 0.00 0.00 0.00 44 1013.9
20260901194829 34 162 0.0 0.0 0.00 0.00 0.00 44 1016.9
20260901194551 33 83 0.0 0.0 0.00 0.00 0.00 44 1013.9
20260901194328 34 118 0.0 0.0 0.00 0.00 0.00 45 1016.9
20260901194039 33 152 0.0 0.0 0.00 0.00 0.00 45 1014.0
20260901193824 34 170 0.0 0.0 0.00 0.00 0.00 45 1017.0
20260901193530 33 158 0.0 0.0 0.00 0.00 0.00 45 1014.0
20260901193321 34 137 0.0 0.0 0.00 0.00 0.00 46 1017.0
20260901193022 33 70 0.0 0.0 0.00 0.00 0.00 46 1014.0
20260901192839 34 88 0.0 0.0 0.00 0.00 0.00 46 1017.0
20260901192513 33 129 0.0 0.0 0.00 0.00 0.00 46 1014.1
20260901192330 33 123 0.0 0.0 0.00 0.00 0.00 46 1017.2
20260901192102 33 160 0.0 0.0 0.00 0.00 0.00 46 1014.2
20260901191829 34 118 0.0 0.0 0.00 0.00 0.00 46 1017.3
20260901191551 33 106 0.0 0.0 0.00 0.00 0.00 46 1014.2
20260901191326 34 128 0.0 0.0 0.00 0.00 0.00 46 1017.2
20260901191052 33 54 0.0 0.0 0.00 0.00 0.00 46 1014.2
20260901190825 33 52 0.0 0.0 0.00 0.00 0.00 46 1017.3
20260901190546 33 83 0.0 0.0 0.00 0.00 0.00 46 1014.3
20260901190323 33 107 0.0 0.0 0.00 0.00 0.00 46 1017.3
20260901190039 33 122 0.0 0.0 0.00 0.00 0.00 46 1014.3
20260901185839 33 46 0.0 0.0 0.00 0.00 0.00 46 1017.3
20260901185527 33 103 0.0 0.0 0.00 0.00 0.00 46 1014.4
20260901185330 33 100 0.0 0.0 0.00 0.00 0.00 46 1017.4
20260901185015 33 92 0.0 0.0 0.00 0.00 0.00 47 1014.5
20260901184847 33 104 0.0 0.0 0.00 0.00 0.00 46 1017.6
20260901184549 33 149 0.0 0.0 0.00 0.00 0.00 48 1014.6
20260901184343 33 52 0.0 0.0 0.00 0.00 0.00 47 1017.6
20260901184009 33 35 0.0 0.0 0.00 0.00 0.00 48 1014.7
20260901183843 33 83 0.0 0.0 0.00 0.00 0.00 47 1017.8
20260901183543 33 68 0.0 0.0 0.00 0.00 0.00 47 1014.8
20260901183321 33 51 0.0 0.0 0.00 0.00 0.00 47 1017.7
20260901183045 33 42 0.0 0.0 0.00 0.00 0.00 48 1014.8
20260901182818 33 84 0.0 0.0 0.00 0.00 0.00 48 1017.8
20260901182527 33 359 0.0 0.0 0.00 0.00 0.00 48 1014.9
20260901182318 33 101 0.0 0.0 0.00 0.00 0.00 48 1018.1
20260901182021 33 85 0.0 0.0 0.00 0.00 0.00 48 1015.1
20260901181815 33 100 0.0 0.0 0.00 0.00 0.00 49 1018.2
20260901181521 32 119 0.0 0.0 0.00 0.00 0.00 48 1015.2
20260901181353 33 119 0.0 0.0 0.00 0.00 0.00 48 1018.2
20260901181042 33 177 0.0 0.0 0.00 0.00 0.00 48 1015.3
20260901180830 33 110 0.0 0.0 0.00 0.00 0.00 48 1018.4
20260901180501 32 181 0.0 0.0 0.00 0.00 0.00 48 1015.4
20260901180328 33 156 0.0 0.0 0.00 0.00 0.00 48 1018.5
20260901180053 32 197 0.0 0.0 0.00 0.00 0.00 49 1015.5
20260901175825 33 151 0.0 0.0 0.00 0.00 0.00 48 1018.5
20260901175545 32 166 0.0 0.0 0.00 0.00 0.00 48 1015.6
20260901175345 33 53 0.0 0.0 0.00 0.00 0.00 48 1018.7
20260901175019 32 73 0.0 0.0 0.00 0.00 0.00 49 1015.6
20260901174820 33 145 0.0 0.0 0.00 0.00 0.00 49 1018.7
20260901174505 32 113 0.0 0.0 0.00 0.00 0.00 49 1015.5
20260901174319 33 85 0.0 0.0 0.00 0.00 0.00 49 1018.6
20260901174100 32 182 0.0 0.0 0.00 0.00 0.00 49 1015.7
20260901173838 33 140 0.0 0.0 0.00 0.00 0.00 49 1018.8
20260901173533 32 66 0.0 0.0 0.00 0.00 0.00 50 1015.7
20260901173315 32 106 0.0 0.0 0.00 0.00 0.00 50 1018.7
20260901173013 32 120 0.0 0.0 0.00 0.00 0.00 52 1015.7
20260901172848 32 174 0.0 0.0 0.00 0.00 0.00 52 1018.8
20260901172545 32 120 0.0 0.0 0.00 0.00 0.00 52 1015.7
20260901172344 32 134 0.0 0.0 0.00 0.00 0.00 52 1018.8
20260901172009 32 330 0.0 0.0 0.00 0.00 0.00 52 1015.9
20260901171840 32 118 0.0 0.0 0.00 0.00 0.00 53 1018.9
20260901171542 32 124 0.0 0.0 0.00 0.00 0.00 53 1016.0
20260901171315 32 179 0.0 0.0 0.00 0.00 0.00 52 1019.0
20260901171036 31 201 0.0 0.0 0.00 0.00 0.00 53 1016.0
20260901170853 32 198 0.0 0.0 0.00 0.00 0.00 53 1019.1
20260901170557 31 241 0.0 0.0 0.00 0.00 0.00 54 1016.2
20260901170331 32 215 0.0 0.0 0.00 0.00 0.00 54 1019.2
20260901170101 31 211 0.0 0.0 0.00 0.00 0.00 53 1016.4
20260901165829 32 168 0.0 0.0 0.00 0.00 0.00 54 1019.5
20260901165539 31 139 0.0 0.0 0.00 0.00 0.00 55 1016.4
20260901165325 31 354 0.0 0.0 0.00 0.00 0.00 54 1019.4
20260901165031 31 163 0.0 0.0 0.00 0.00 0.00 55 1016.5
20260901164825 31 172 0.0 0.0 0.00 0.00 0.00 55 1019.4
20260901164526 31 139 0.0 0.0 0.00 0.00 0.00 54 1016.5
20260901164321 31 154 0.0 0.0 0.00 0.00 0.00 54 1019.4
20260901164008 31 115 0.0 0.0 0.00 0.00 0.00 54 1016.4
20260901163818 31 139 0.0 0.0 0.00 0.00 0.00 56 1019.5
20260901163559 31 147 0.0 0.0 0.00 0.00 0.00 56 1016.5
20260901163400 31 236 0.0 0.0 0.00 0.00 0.00 58 1019.3
20260901163032 30 359 0.0 0.0 0.00 0.00 0.00 57 1016.4
20260901162830 31 194 0.0 0.0 0.00 0.00 0.00 57 1019.4
20260901162513 30 210 0.0 0.0 0.00 0.00 0.00 58 1016.4
20260901162326 31 217 0.0 0.0 0.00 0.00 0.00 59 1019.4
20260901162005 30 279 0.0 0.0 0.00 0.00 0.00 59 1016.4
20260901161847 30 246 0.0 0.0 0.00 0.00 0.00 59 1019.4
20260901161541 30 222 0.0 0.0 0.00 0.00 0.00 59 1016.5
20260901161322 30 218 0.0 0.0 0.00 0.00 0.00 58 1019.5
20260901161037 30 224 0.0 0.0 0.00 0.00 0.00 58 1016.5
20260901160840 30 181 0.0 0.0 0.00 0.00 0.00 59 1019.5
20260901160527 30 117 0.0 0.0 0.00 0.00 0.00 61 1016.5
20260901160332 30 124 0.0 0.0 0.00 0.00 0.00 61 1019.4
20260901160010 30 226 0.0 0.0 0.00 0.00 0.00 61 1016.5
20260901155828 30 68 0.0 0.0 0.00 0.00 0.00 61 1019.4
20260901155601 30 169 0.0 0.0 0.00 0.00 0.00 63 1016.5
20260901155324 30 218 0.0 0.0 0.00 0.00 0.00 63 1019.4
20260901155053 29 218 0.0 0.0 0.00 0.00 0.00 62 1016.4
20260901154841 30 159 0.0 0.0 0.00 0.00 0.00 62 1019.4
20260901154524 29 138 0.0 0.0 0.00 0.00 0.00 63 1016.5
20260901154317 30 126 0.0 0.0 0.00 0.00 0.00 63 1019.4
20260901154015 29 170 0.0 0.0 0.00 0.00 0.00 64 1016.5
20260901153815 29 152 0.0 0.0 0.00 0.00 0.00 64 1019.4
20260901153540 29 131 0.0 0.0 0.00 0.00 0.00 65 1016.5
20260901153331 29 133 0.0 0.0 0.00 0.00 0.00 65 1019.5
20260901153033 28 134 0.0 0.0 0.00 0.00 0.00 65 1016.5
20260901152851 29 174 0.0 0.0 0.00 0.00 0.00 66 1019.5
20260901152553 28 146 0.0 0.0 0.00 0.00 0.00 67 1016.5
20260901152329 28 147 0.0 0.0 0.00 0.00 0.00 67 1019.5
20260901152045 28 230 0.0 0.0 0.00 0.00 0.00 68 1016.5
20260901151825 28 213 0.0 0.0 0.00 0.00 0.00 68 1019.6
20260901151535 28 116 0.0 0.0 0.00 0.00 0.00 69 1016.6
20260901151323 28 197 0.0 0.0 0.00 0.00 0.00 70 1019.5
20260901151026 28 220 0.0 0.0 0.00 0.00 0.00 70 1016.5
20260901150820 28 136 0.0 0.0 0.00 0.00 0.00 72 1019.4
20260901150517 27 246 0.0 0.0 0.00 0.00 0.00 72 1016.6
20260901150319 27 246 0.0 0.0 0.00 0.00 0.00 73 1019.6
20260901150107 27 247 0.0 0.0 0.00 0.00 0.00 73 1016.6
20260901145851 27 188 0.0 0.0 0.00 0.00 0.00 73 1019.6
20260901145533 27 183 0.0 0.0 0.00 0.00 0.00 74 1016.7
20260901145330 27 168 0.0 0.0 0.00 0.00 0.00 74 1019.6
20260901145014 27 244 0.0 0.0 0.00 0.00 0.00 76 1016.8
20260901144829 27 243 0.0 0.0 0.00 0.00 0.00 76 1019.6
20260901144507 26 255 0.0 0.0 0.00 0.00 0.00 76 1016.7
20260901144326 27 259 0.0 0.0 0.00 0.00 0.00 76 1019.7
20260901144101 26 232 0.0 0.0 0.00 0.00 0.00 76 1016.8
20260901143844 26 267 0.0 0.0 0.00 0.00 0.00 77 1019.7
20260901143531 26 237 0.0 0.0 0.00 0.00 0.00 77 1016.8
20260901143322 26 239 0.0 0.0 0.00 0.00 0.00 77 1019.7
20260901143023 26 212 0.0 0.0 0.00 0.00 0.00 77 1016.7
20260901142819 26 212 0.0 0.0 0.00 0.00 0.00 77 1019.8
20260901142504 26 213 0.0 0.0 0.00 0.00 0.00 77 1016.8
20260901142316 26 213 0.0 0.0 0.00 0.00 0.00 78 1019.8
20260901142057 26 199 0.0 0.0 0.00 0.00 0.00 78 1016.9
20260901141853 26 241 0.0 0.0 0.00 0.00 0.00 79 1019.8
20260901141517 26 222 0.0 0.0 0.00 0.00 0.00 79 1016.9
20260901141351 26 222 0.0 0.0 0.00 0.00 0.00 79 1019.7
20260901141049 25 224 0.0 0.0 0.00 0.00 0.00 79 1016.9
20260901140829 26 224 0.0 0.0 0.00 0.00 0.00 79 1019.8
20260901140540 25 224 0.0 0.0 0.00 0.00 0.00 80 1017.0
20260901140326 25 224 0.0 0.0 0.00 0.00 0.00 80 1019.7
20260901140042 25 224 0.0 0.0 0.00 0.00 0.00 80 1016.8
20260901135822 25 261 0.0 0.0 0.00 0.00 0.00 81 1019.7
20260901135555 25 261 0.0 0.0 0.00 0.00 0.00 81 1016.8
20260901135339 25 261 0.0 0.0 0.00 0.00 0.00 81 1019.7
20260901135042 25 261 0.0 0.0 0.00 0.00 0.00 81 1016.7
20260901134831 25 261 0.0 0.0 0.00 0.00 0.00 81 1019.7
20260901134537 24 261 0.0 0.0 0.00 0.00 0.00 81 1016.7
20260901134329 25 261 0.0 0.0 0.00 0.00 0.00 82 1019.6
20260901134019 24 208 0.0 0.0 0.00 0.00 0.00 82 1016.7
20260901133844 24 208 0.0 0.0 0.00 0.00 0.00 82 1019.7
20260901133547 24 208 0.0 0.0 0.00 0.00 0.00 82 1016.6
20260901133323 24 208 0.0 0.0 0.00 0.00 0.00 83 1019.5
20260901133046 23 208 0.0 0.0 0.00 0.00 0.00 83 1016.6
20260901132820 23 208 0.0 0.0 0.00 0.00 0.00 83 1019.5
20260901132529 23 208 0.0 0.0 0.00 0.00 0.00 83 1016.7
20260901132317 23 208 0.0 0.0 0.00 0.00 0.00 83 1019.5
20260901132021 23 208 0.0 1.6 0.00 0.00 0.00 83 1016.7
20260901131814 23 208 0.0 1.6 0.00 0.00 0.00 83 1019.6
20260901131548 23 208 0.0 1.6 0.00 0.00 0.00 83 1016.7
20260901131330 23 208 0.0 1.6 0.00 0.00 0.00 83 1019.5
20260901131042 22 208 0.0 1.6 0.00 0.00 0.00 83 1016.6
20260901130828 23 208 0.0 1.6 0.00 0.00 0.00 83 1019.5
20260901130538 22 208 0.0 1.6 0.00 0.00 0.00 83 1016.5
20260901130325 22 208 0.0 0.0 0.00 0.00 0.00 83 1019.4
20260901130043 22 208 0.0 0.0 0.00 0.00 0.00 82 1016.4
20260901125825 22 208 0.0 0.0 0.00 0.00 0.00 82 1019.2
20260901125530 22 208 0.0 1.6 0.00 0.00 0.00 82 1016.4
20260901125321 22 208 0.0 1.6 0.00 0.00 0.00 82 1019.2
20260901125056 22 208 0.0 1.6 0.00 0.00 0.00 82 1016.2
20260901124819 22 208 0.0 1.6 0.00 0.00 0.00 82 1019.1
20260901124547 22 208 0.0 3.2 0.00 0.00 0.00 82 1016.2
20260901124317 22 208 0.0 3.2 0.00 0.00 0.00 82 1019.1
20260901124040 22 208 0.0 3.2 0.00 0.00 0.00 83 1016.2
20260901123816 22 208 1.6 3.2 0.00 0.00 0.00 83 1019.1
20260901123533 22 208 0.0 3.2 0.00 0.00 0.00 83 1016.2